Airfield :







YOU CAN JOIN US ON...

 
LOGIN :

Register | Disclaimer

   EN    FR    IT 

 









Legend :    VFR   Marginal VFR   IFR   Intensive IFR   Very Intensive IFR
Visi :
Ceiling :
>= 8 km
>= 3000ft
5 to 8 km
1000 to 3000 ft
1500m to 5 km
500 to 1000 ft
800 to 1500m
200 to 500 ft
< 800m
< 200 ft
Symbols :   Thunderstorms  Fog  Heavy snow  Heavy precipitations  Wind > 20 kt






- Airport Elevation : 1270 ft
- IATA code : YMT


CYMT - Chapais

CURRENT METAR :
  • 161800Z AUTO 21011G18KT 190V270 9SM SCT049 18/06 A3016 RMK SLP224 DENSITY ALT 1700FT

EXPIRED METARs :
  • 161700Z AUTO 19015G24KT 9SM BKN045 18/07 A3019 RMK SLP232 DENSITY ALT 1600FT
  • 161600Z AUTO 21010G19KT 9SM FEW029 SCT036 BKN044 16/08 A3020 RMK SLP235 DENSITY ALT 1500FT

TAF TAF CYMT
Valid from the 16 at 18:00 until the 17 at 00:00 UTC


161738Z 1618/1624 20012G22KT P6SM SCT050
TEMPO 1618/1624 BKN050
BECMG 1623/1624 20010KT RMK FCST BASED ON AUTO OBS. NXT FCST WILL BE ISSUED AT 171145Z
CZUL FIR / North America



MET'MAP, your aeronautical weather chart ! - Copyright ORBIFLY December 2007 - Disclaimer

ORBIFLY MET'MAP TEAM :

Programming & Development : Alexandra Zaïnal
Concept & original design : Baudouin d'Aumeries
Assistance for programming : Marc-Olivier Méhu
Technical & hardware support : Manuel Goepfert

Contact : metmap@orbifly.com




SOURCES & CREDITS :

   NOAA